Time,TemperatureF,DewpointF,PressureIn,WindDirection,WindDirectionDegrees,WindSpeedMPH,WindSpeedGustMPH,Humidity,HourlyPrecipIn,Conditions,Clouds,dailyrainin,SoftwareType,DateUTC
2013-04-07 00:03:00,65.9,62.0,30.11,ENE,71,11.0,11.0,87,0.00,,,0.00,weatherlink.com 1.10,2013-04-07 04:03:00,
2013-04-07 00:18:00,65.8,63.0,30.11,ENE,58,5.0,13.0,90,0.00,,,0.00,weatherlink.com 1.10,2013-04-07 04:18:00,
2013-04-07 00:33:00,65.4,62.0,30.11,ENE,63,12.0,13.0,87,0.00,,,0.00,weatherlink.com 1.10,2013-04-07 04:33:00,
2013-04-07 00:48:00,64.6,61.0,30.12,NE,49,4.0,9.0,88,0.00,,,0.00,weatherlink.com 1.10,2013-04-07 04:48:00,
2013-04-07 01:18:00,63.5,61.0,30.11,NE,51,5.0,9.0,92,0.00,,,0.00,weatherlink.com 1.10,2013-04-07 05:18:00,
2013-04-07 01:33:00,63.2,61.0,30.11,ENE,59,7.0,8.0,92,0.00,,,0.00,weatherlink.com 1.10,2013-04-07 05:33:00,
2013-04-07 04:03:00,62.1,61.0,30.07,NE,44,3.0,5.0,95,0.00,,,0.00,weatherlink.com 1.10,2013-04-07 08:03:00,
2013-04-07 04:50:00,61.7,61.0,30.07,NNE,30,3.0,6.0,97,0.00,,,0.00,weatherlink.com 1.10,2013-04-07 08:50:00,
2013-04-07 05:05:00,61.7,61.0,30.07,NE,38,3.0,6.0,97,0.00,,,0.00,weatherlink.com 1.10,2013-04-07 09:05:00,
2013-04-07 05:20:00,62.1,61.0,30.08,NE,34,1.0,6.0,97,0.00,,,0.00,weatherlink.com 1.10,2013-04-07 09:20:00,
2013-04-07 05:35:00,62.0,61.0,30.09,NE,44,3.0,5.0,97,0.00,,,0.00,weatherlink.com 1.10,2013-04-07 09:35:00,
2013-04-07 05:50:00,61.8,61.0,30.09,NE,35,2.0,5.0,96,0.00,,,0.00,weatherlink.com 1.10,2013-04-07 09:50:00,
2013-04-07 06:05:00,62.2,61.0,30.09,NNE,32,2.0,6.0,97,0.00,,,0.00,weatherlink.com 1.10,2013-04-07 10:05:00,
2013-04-07 06:20:00,61.4,60.0,30.11,NE,40,5.0,5.0,96,0.00,,,0.00,weatherlink.com 1.10,2013-04-07 10:20:00,
2013-04-07 06:35:00,61.8,61.0,30.11,NNE,15,5.0,7.0,97,0.00,,,0.00,weatherlink.com 1.10,2013-04-07 10:35:00,
2013-04-07 06:50:00,61.7,61.0,30.11,NNE,31,4.0,7.0,97,0.00,,,0.00,weatherlink.com 1.10,2013-04-07 10:50:00,
2013-04-07 07:05:00,61.3,61.0,30.11,NE,38,3.0,6.0,97,0.00,,,0.00,weatherlink.com 1.10,2013-04-07 11:05:00,
2013-04-07 07:20:00,61.0,61.0,30.12,NE,40,4.0,6.0,98,0.00,,,0.00,weatherlink.com 1.10,2013-04-07 11:20:00,
2013-04-07 07:35:00,60.7,60.0,30.12,NE,38,4.0,4.0,97,0.00,,,0.00,weatherlink.com 1.10,2013-04-07 11:35:00,
2013-04-07 07:50:00,60.7,60.0,30.13,NE,44,3.0,4.0,98,0.00,,,0.00,weatherlink.com 1.10,2013-04-07 11:50:00,
2013-04-07 08:05:00,61.6,61.0,30.13,NE,46,4.0,4.0,98,0.00,,,0.00,weatherlink.com 1.10,2013-04-07 12:05:00,
2013-04-07 08:20:00,61.8,61.0,30.14,NE,41,3.0,4.0,98,0.00,,,0.00,weatherlink.com 1.10,2013-04-07 12:20:00,
2013-04-07 08:35:00,63.1,63.0,30.14,ENE,61,4.0,6.0,98,0.00,,,0.00,weatherlink.com 1.10,2013-04-07 12:35:00,
2013-04-07 08:50:00,64.1,63.0,30.15,ENE,74,5.0,9.0,96,0.00,,,0.00,weatherlink.com 1.10,2013-04-07 12:50:00,
2013-04-07 09:05:00,65.4,63.0,30.15,NE,53,5.0,9.0,93,0.00,,,0.00,weatherlink.com 1.10,2013-04-07 13:05:00,
2013-04-07 09:20:00,66.7,64.0,30.15,NE,44,7.0,8.0,91,0.00,,,0.00,weatherlink.com 1.10,2013-04-07 13:20:00,
2013-04-07 09:35:00,67.5,64.0,30.15,East,92,8.0,11.0,87,0.00,,,0.00,weatherlink.com 1.10,2013-04-07 13:35:00,
2013-04-07 09:50:00,68.9,64.0,30.15,East,83,6.0,10.0,85,0.00,,,0.00,weatherlink.com 1.10,2013-04-07 13:50:00,
2013-04-07 10:05:00,70.7,65.0,30.15,East,90,9.0,13.0,81,0.00,,,0.00,weatherlink.com 1.10,2013-04-07 14:05:00,
2013-04-07 10:20:00,72.1,65.0,30.16,East,89,11.0,13.0,78,0.00,,,0.00,weatherlink.com 1.10,2013-04-07 14:20:00,
2013-04-07 10:35:00,72.6,64.0,30.16,East,86,6.0,13.0,75,0.00,,,0.00,weatherlink.com 1.10,2013-04-07 14:35:00,
2013-04-07 10:50:00,73.8,63.0,30.16,ESE,109,7.0,12.0,70,0.00,,,0.00,weatherlink.com 1.10,2013-04-07 14:50:00,
2013-04-07 11:05:00,74.3,63.0,30.16,SE,134,9.0,14.0,69,0.00,,,0.00,weatherlink.com 1.10,2013-04-07 15:05:00,
2013-04-07 11:20:00,74.4,62.0,30.16,ESE,107,11.0,13.0,66,0.00,,,0.00,weatherlink.com 1.10,2013-04-07 15:20:00,
2013-04-07 11:35:00,74.6,62.0,30.16,SE,128,4.0,12.0,65,0.00,,,0.00,weatherlink.com 1.10,2013-04-07 15:35:00,
2013-04-07 11:50:00,74.6,62.0,30.16,SE,129,5.0,14.0,64,0.00,,,0.00,weatherlink.com 1.10,2013-04-07 15:50:00,
2013-04-07 12:05:00,74.5,61.0,30.16,ENE,60,5.0,10.0,64,0.00,,,0.00,weatherlink.com 1.10,2013-04-07 16:05:00,
2013-04-07 12:20:00,75.5,62.0,30.15,East,81,10.0,14.0,64,0.00,,,0.00,weatherlink.com 1.10,2013-04-07 16:20:00,
2013-04-07 12:35:00,76.1,62.0,30.15,SE,137,9.0,9.0,61,0.00,,,0.00,weatherlink.com 1.10,2013-04-07 16:35:00,
2013-04-07 12:50:00,76.4,61.0,30.14,SSE,159,4.0,9.0,59,0.00,,,0.00,weatherlink.com 1.10,2013-04-07 16:50:00,
2013-04-07 13:05:00,76.8,59.0,30.13,ENE,73,2.0,11.0,55,0.00,,,0.00,weatherlink.com 1.10,2013-04-07 17:05:00,
2013-04-07 13:20:00,76.7,60.0,30.13,SE,140,6.0,14.0,56,0.00,,,0.00,weatherlink.com 1.10,2013-04-07 17:20:00,
2013-04-07 13:35:00,77.8,61.0,30.12,ESE,112,3.0,13.0,56,0.00,,,0.00,weatherlink.com 1.10,2013-04-07 17:35:00,
2013-04-07 13:50:00,78.3,60.0,30.12,ESE,102,2.0,11.0,53,0.00,,,0.00,weatherlink.com 1.10,2013-04-07 17:50:00,
2013-04-07 14:05:00,79.0,57.0,30.11,SE,134,3.0,13.0,47,0.00,,,0.00,weatherlink.com 1.10,2013-04-07 18:05:00,
2013-04-07 14:21:00,79.7,61.0,30.11,SE,137,5.0,13.0,53,0.00,,,0.00,weatherlink.com 1.10,2013-04-07 18:21:00,
2013-04-07 14:36:00,79.0,60.0,30.11,ESE,121,5.0,8.0,52,0.00,,,0.00,weatherlink.com 1.10,2013-04-07 18:36:00,
2013-04-07 14:51:00,79.5,57.0,30.10,SE,128,5.0,11.0,46,0.00,,,0.00,weatherlink.com 1.10,2013-04-07 18:51:00,
2013-04-07 15:06:00,79.1,58.0,30.09,ESE,115,2.0,9.0,49,0.00,,,0.00,weatherlink.com 1.10,2013-04-07 19:06:00,
2013-04-07 15:21:00,79.6,58.0,30.09,East,98,5.0,10.0,48,0.00,,,0.00,weatherlink.com 1.10,2013-04-07 19:21:00,
2013-04-07 15:36:00,79.9,58.0,30.08,ESE,121,5.0,9.0,47,0.00,,,0.00,weatherlink.com 1.10,2013-04-07 19:36:00,
2013-04-07 15:51:00,80.4,57.0,30.08,SE,136,5.0,12.0,45,0.00,,,0.00,weatherlink.com 1.10,2013-04-07 19:51:00,
2013-04-07 16:06:00,78.9,61.0,30.08,ENE,76,10.0,13.0,55,0.00,,,0.00,weatherlink.com 1.10,2013-04-07 20:06:00,
2013-04-07 16:21:00,79.4,60.0,30.07,East,83,6.0,11.0,52,0.00,,,0.00,weatherlink.com 1.10,2013-04-07 20:21:00,
2013-04-07 16:36:00,78.7,58.0,30.07,East,91,5.0,8.0,50,0.00,,,0.00,weatherlink.com 1.10,2013-04-07 20:36:00,
2013-04-07 16:51:00,78.9,59.0,30.07,ENE,77,4.0,8.0,51,0.00,,,0.00,weatherlink.com 1.10,2013-04-07 20:51:00,
2013-04-07 17:51:00,79.1,59.0,30.06,ESE,105,5.0,16.0,50,0.00,,,0.00,weatherlink.com 1.10,2013-04-07 21:51:00,
2013-04-07 18:36:00,79.0,63.0,30.06,NE,53,9.0,13.0,59,0.00,,,0.00,weatherlink.com 1.10,2013-04-07 22:36:00,
2013-04-07 19:21:00,76.8,63.0,30.06,ESE,109,5.0,9.0,62,0.00,,,0.00,weatherlink.com 1.10,2013-04-07 23:21:00,
2013-04-07 20:21:00,73.7,61.0,30.07,ESE,103,10.0,12.0,65,0.00,,,0.00,weatherlink.com 1.10,2013-04-08 00:21:00,
2013-04-07 20:36:00,72.6,61.0,30.07,ESE,113,4.0,12.0,67,0.00,,,0.00,weatherlink.com 1.10,2013-04-08 00:36:00,
2013-04-07 21:06:00,71.3,61.0,30.09,ESE,111,5.0,9.0,69,0.00,,,0.00,weatherlink.com 1.10,2013-04-08 01:06:00,
2013-04-07 21:36:00,70.4,61.0,30.10,SE,138,7.0,12.0,72,0.00,,,0.00,weatherlink.com 1.10,2013-04-08 01:36:00,
2013-04-07 22:06:00,69.9,61.0,30.11,ESE,109,7.0,9.0,74,0.00,,,0.00,weatherlink.com 1.10,2013-04-08 02:06:00,
2013-04-07 22:21:00,69.5,61.0,30.11,SE,127,4.0,12.0,75,0.00,,,0.00,weatherlink.com 1.10,2013-04-08 02:21:00,
2013-04-07 22:51:00,68.4,61.0,30.12,ESE,120,3.0,7.0,77,0.00,,,0.00,weatherlink.com 1.10,2013-04-08 02:51:00,
2013-04-07 23:06:00,67.8,61.0,30.12,SE,138,4.0,6.0,79,0.00,,,0.00,weatherlink.com 1.10,2013-04-08 03:06:00,
2013-04-07 23:36:00,66.9,61.0,30.12,ESE,112,4.0,6.0,81,0.00,,,0.00,weatherlink.com 1.10,2013-04-08 03:36:00,